sat.trackr.live / text

‹ back to catalog

NUSAT-52

NORAD 66692 · 2025-276AC

PAYLOAD ACTIVE UNKNOWN

§ Identity

Operator
Country
ARGN
Launch date
2025-11-28
Launch site
AFWTR
Launch vehicle
Mass (kg)
RCS (m²)

External: N2YO · Heavens-Above · Gunter

§ Orbital elements

Epoch: 2026-09-20T22:07:19.760736Z

Period
94.70 min
Inclination
97.4126°
Eccentricity
0.0004352
Mean motion
15.20549295 rev/d
Perigee alt
501.2 km
Apogee alt
507.2 km
Semi-major
6,882.3 km
B*
1.4029e-4
RAAN
335.8876°
Arg perigee
61.4568°
Mean anomaly
298.7105°
Rev number
4,496

§ Raw data

NUSAT-521 66692U 25276AC  26263.92175649  .00003002  00000+0  14029-3 0  99962 66692  97.4126 335.8876 0004352  61.4568 298.7105 15.20549295 44961

JSON: /api/v1/satellites/66692 · /tle

For live sub-satellite position, see the globe view (requires WebGL).

§ Visibility from observer

Set your observer location to see the next 7 days of passes ≥ 10°. The values pass through the URL so the page stays shareable.

No JS? Fill the form by hand. The geolocation button needs JavaScript.